User: anonymous   Login
Location: Hokitika
(42.7170°S, 170.9670°E)
Time: 23:08:31
(UTC+13:00)
Language:

Terra - Orbit

View from above orbital plane
View from above orbital plane
View from above satellite
View from above satellite

Ground track
Ground track

The orbit data is extracted from the following two-line orbital elements,

1 25994U 99068A   19079.16634969 -.00000041  00000-0  90132-6 0  9998
2 25994  98.2089 155.0190 0001198  79.3083 280.8192 14.57109058 24014
Epoch (UTC): 20 March 2019 03:59:32
Eccentricity: 0.0001198
inclination: 98.2089°
perigee height: 701 km
apogee height: 703 km
right ascension of ascending node: 155.0190°
argument of perigee: 79.3083°
revolutions per day: 14.57109058
mean anomaly at epoch: 280.8192°
orbit number at epoch: 2401

The dashed part of the orbit path shows where the satellite is in the earth's shadow,  

DLR